Flag for Austria Weather past 2 weeks in Bruck an der Mur, Styria, Austria

Now
70 °F

Scattered clouds.


Feels Like: 70 °F
Forecast: 53 / 77 °F
Wind: 2 mph from North

Location: Zeltweg

Current Time: Jul 23, 2014 at 8:05:43 PM

Latest Report: Jul 23, 2014 at 6:50 PM


Visibility: 19 mi

Pressure: 29.95 "Hg

Humidity: 60%

Dew point: 55 °F

Location of Bruck an der MurLocation

Historic Weather in Bruck an der Mur — Graph

°F

Bruck an der Mur temperature yesterday

Maximum temperature yesterday: 75 °F (at 1:20 PM)
Minimum temperature yesterday: 57 °F (at 4:50 AM)
Average temperature yesterday: 67 °F

Past Weeks' High & Low Weather Summary

 TemperatureHumidityPressure
High86 °F (Jul 20, 12:50 PM)100% (Jul 14, 4:50 AM)30.24 "Hg (Jul 14, 4:50 AM)
Low50 °F (Jul 10, 5:50 AM)32% (Jul 18, 6:50 PM)29.68 "Hg (Jul 8, 6:50 PM)
Average66 °F70%29.98 "Hg
* Reported Jul 8 6:50 PM — Jul 23 6:50 PM, Bruck an der Mur, Weather by CustomWeather, © 2014

Note: Actual official high and low records may vary slightly from our data, if they occured in-between our weather recording intervals... More about our weather records

Advertising

Bruck an der Mur weather history for previous 24 hours

 ConditionsComfort  
Time TempWeatherWind HumidityBarometerVisibility
6:50 PM
Jul 23
70 °FScattered clouds.2 mph60%29.95 "Hg19 mi
5:50 PM68 °FPartly sunny.3 mph69%29.95 "Hg19 mi
4:50 PM66 °FPartly sunny.6 mph73%29.98 "Hg19 mi
4:20 PM66 °FPartly sunny.8 mph78%29.98 "Hg19 mi
3:50 PM64 °FBroken clouds.9 mph73%29.98 "Hg19 mi
3:20 PM64 °FPartly sunny.5 mph78%29.98 "Hg19 mi
2:50 PM73 °FBroken clouds.8 mph50%29.95 "Hg19 mi
12:50 PM70 °FScattered clouds.5 mph69%29.98 "Hg19 mi
11:50 AM66 °FSprinkles. Broken clouds.2 mph73%29.98 "Hg12 mi
11:20 AM66 °FBroken clouds.2 mph78%29.98 "Hg12 mi
10:50 AM64 °FSprinkles. Broken clouds.2 mph83%29.98 "Hg12 mi
10:20 AM66 °FBroken clouds.2 mph78%29.98 "Hg12 mi
9:50 AM64 °FScattered clouds.2 mph83%29.98 "Hg9 mi
7:50 AM61 °FBroken clouds.2 mph94%29.98 "Hg6 mi
7:20 AM59 °FSleet. Fog.3 mph100%29.98 "Hg5 mi
6:50 AM59 °FSleet. Fog.2 mph100%29.95 "Hg6 mi
5:50 AM61 °FSleet. Partly cloudy.1 mph94%29.95 "Hg4 mi
Weather by CustomWeather, © 2014

See weather overviewHow to use our weather pages